Year,Month,Day,Hour,Minute,Value (Times are PST for temperature in C)
2021,04,19,00,00,8.90
2021,04,19,00,01,8.90
2021,04,19,00,02,8.90
2021,04,19,00,03,8.80
2021,04,19,00,04,8.80
2021,04,19,00,05,8.80
2021,04,19,00,06,8.80
2021,04,19,00,07,8.80
2021,04,19,00,08,8.80
2021,04,19,00,09,8.70
2021,04,19,00,10,8.70
2021,04,19,00,11,8.70
2021,04,19,00,12,8.70
2021,04,19,00,13,8.70
2021,04,19,00,14,8.70
2021,04,19,00,15,8.60
2021,04,19,00,16,8.60
2021,04,19,00,17,8.60
2021,04,19,00,18,8.60
2021,04,19,00,19,8.60
2021,04,19,00,20,8.60
2021,04,19,00,21,8.60
2021,04,19,00,22,8.60
2021,04,19,00,23,8.50
2021,04,19,00,24,8.50
2021,04,19,00,25,8.40
2021,04,19,00,26,8.40
2021,04,19,00,27,8.40
2021,04,19,00,28,8.30
2021,04,19,00,29,8.30
2021,04,19,00,30,8.30
2021,04,19,00,31,8.30
2021,04,19,00,32,8.30
2021,04,19,00,33,8.30
2021,04,19,00,34,8.30
2021,04,19,00,35,8.30
2021,04,19,00,36,8.20
2021,04,19,00,37,8.20
2021,04,19,00,38,8.20
2021,04,19,00,39,8.10
2021,04,19,00,40,8.10
2021,04,19,00,41,8.10
2021,04,19,00,42,8.10
2021,04,19,00,43,8.00
2021,04,19,00,44,8.00
2021,04,19,00,45,8.00
2021,04,19,00,46,7.90
2021,04,19,00,47,7.90
2021,04,19,00,48,7.90
2021,04,19,00,49,7.90
2021,04,19,00,50,7.90
2021,04,19,00,51,7.90
2021,04,19,00,52,7.80
2021,04,19,00,53,7.80
2021,04,19,00,54,7.80
2021,04,19,00,55,7.80
2021,04,19,00,56,7.80
2021,04,19,00,57,7.80
2021,04,19,00,58,7.80
2021,04,19,00,59,7.70
2021,04,19,01,00,7.70
2021,04,19,01,01,7.70
2021,04,19,01,02,7.70
2021,04,19,01,03,7.70
2021,04,19,01,04,7.60
2021,04,19,01,05,7.60
2021,04,19,01,06,7.60
2021,04,19,01,07,7.60
2021,04,19,01,08,7.60
2021,04,19,01,09,7.60
2021,04,19,01,10,7.60
2021,04,19,01,11,7.50
2021,04,19,01,12,7.50
2021,04,19,01,13,7.50
2021,04,19,01,14,7.50
2021,04,19,01,15,7.50
2021,04,19,01,16,7.40
2021,04,19,01,17,7.40
2021,04,19,01,18,7.40
2021,04,19,01,19,7.40
2021,04,19,01,20,7.40
2021,04,19,01,21,7.30
2021,04,19,01,22,7.30
2021,04,19,01,23,7.30
2021,04,19,01,24,7.30
2021,04,19,01,25,7.30
2021,04,19,01,26,7.30
2021,04,19,01,27,7.30
2021,04,19,01,28,7.30
2021,04,19,01,29,7.30
2021,04,19,01,30,7.30
2021,04,19,01,31,7.20
2021,04,19,01,32,7.20
2021,04,19,01,33,7.20
2021,04,19,01,34,7.20
2021,04,19,01,35,7.20
2021,04,19,01,36,7.20
2021,04,19,01,37,7.10
2021,04,19,01,38,7.10
2021,04,19,01,39,7.10
2021,04,19,01,40,7.10
2021,04,19,01,41,7.10
2021,04,19,01,42,7.10
2021,04,19,01,43,7.00
2021,04,19,01,44,7.00
2021,04,19,01,45,7.00
2021,04,19,01,46,7.00
2021,04,19,01,47,6.90
2021,04,19,01,48,6.90
2021,04,19,01,49,6.90
2021,04,19,01,50,6.90
2021,04,19,01,51,6.90
2021,04,19,01,52,6.90
2021,04,19,01,53,6.90
2021,04,19,01,54,6.80
2021,04,19,01,55,6.80
2021,04,19,01,56,6.80
2021,04,19,01,57,6.80
2021,04,19,01,58,6.80
2021,04,19,01,59,6.80
2021,04,19,02,00,6.80
2021,04,19,02,01,6.70
2021,04,19,02,02,6.70
2021,04,19,02,03,6.70
2021,04,19,02,04,6.70
2021,04,19,02,05,6.70
2021,04,19,02,06,6.70
2021,04,19,02,07,6.70
2021,04,19,02,08,6.70
2021,04,19,02,09,6.70
2021,04,19,02,10,6.60
2021,04,19,02,11,6.60
2021,04,19,02,12,6.60
2021,04,19,02,13,6.60
2021,04,19,02,14,6.60
2021,04,19,02,15,6.60
2021,04,19,02,16,6.50
2021,04,19,02,17,6.50
2021,04,19,02,18,6.50
2021,04,19,02,19,6.50
2021,04,19,02,20,6.40
2021,04,19,02,21,6.40
2021,04,19,02,22,6.40
2021,04,19,02,23,6.40
2021,04,19,02,24,6.40
2021,04,19,02,25,6.40
2021,04,19,02,26,6.40
2021,04,19,02,27,6.40
2021,04,19,02,28,6.40
2021,04,19,02,29,6.40
2021,04,19,02,30,6.40
2021,04,19,02,31,6.40
2021,04,19,02,32,6.40
2021,04,19,02,33,6.30
2021,04,19,02,34,6.30
2021,04,19,02,35,6.30
2021,04,19,02,36,6.30
2021,04,19,02,37,6.30
2021,04,19,02,38,6.30
2021,04,19,02,39,6.30
2021,04,19,02,40,6.30
2021,04,19,02,41,6.30
2021,04,19,02,42,6.20
2021,04,19,02,43,6.20
2021,04,19,02,44,6.20
2021,04,19,02,45,6.20
2021,04,19,02,46,6.20
2021,04,19,02,47,6.20
2021,04,19,02,48,6.20
2021,04,19,02,49,6.20
2021,04,19,02,50,6.20
2021,04,19,02,51,6.20
2021,04,19,02,52,6.20
2021,04,19,02,53,6.20
2021,04,19,02,54,6.20
2021,04,19,02,55,6.20
2021,04,19,02,56,6.10
2021,04,19,02,57,6.10
2021,04,19,02,58,6.10
2021,04,19,02,59,6.10
2021,04,19,03,00,6.10
2021,04,19,03,01,6.10
2021,04,19,03,02,6.10
2021,04,19,03,03,6.10
2021,04,19,03,04,6.10
2021,04,19,03,05,6.10
2021,04,19,03,06,6.10
2021,04,19,03,07,6.00
2021,04,19,03,08,6.00
2021,04,19,03,09,6.00
2021,04,19,03,10,6.00
2021,04,19,03,11,5.90
2021,04,19,03,12,5.90
2021,04,19,03,13,5.90
2021,04,19,03,14,5.90
2021,04,19,03,15,5.90
2021,04,19,03,16,5.90
2021,04,19,03,17,5.90
2021,04,19,03,18,5.80
2021,04,19,03,19,5.80
2021,04,19,03,20,5.80
2021,04,19,03,21,5.80
2021,04,19,03,22,5.80
2021,04,19,03,23,5.80
2021,04,19,03,24,5.80
2021,04,19,03,25,5.80
2021,04,19,03,26,5.80
2021,04,19,03,27,5.70
2021,04,19,03,28,5.70
2021,04,19,03,29,5.70
2021,04,19,03,30,5.70
2021,04,19,03,31,5.70
2021,04,19,03,32,5.70
2021,04,19,03,33,5.70
2021,04,19,03,34,5.60
2021,04,19,03,35,5.60
2021,04,19,03,36,5.60
2021,04,19,03,37,5.60
2021,04,19,03,38,5.60
2021,04,19,03,39,5.60
2021,04,19,03,40,5.60
2021,04,19,03,41,5.50
2021,04,19,03,42,5.50
2021,04,19,03,43,5.50
2021,04,19,03,44,5.50
2021,04,19,03,45,5.50
2021,04,19,03,46,5.50
2021,04,19,03,47,5.40
2021,04,19,03,48,5.50
2021,04,19,03,49,5.40
2021,04,19,03,50,5.40
2021,04,19,03,51,5.40
2021,04,19,03,52,5.40
2021,04,19,03,53,5.40
2021,04,19,03,54,5.40
2021,04,19,03,55,5.40
2021,04,19,03,56,5.40
2021,04,19,03,57,5.40
2021,04,19,03,58,5.30
2021,04,19,03,59,5.30
2021,04,19,04,00,5.30
2021,04,19,04,01,5.30
2021,04,19,04,02,5.30
2021,04,19,04,03,5.30
2021,04,19,04,04,5.30
2021,04,19,04,05,5.30
2021,04,19,04,06,5.30
2021,04,19,04,07,5.30
2021,04,19,04,08,5.30
2021,04,19,04,09,5.30
2021,04,19,04,10,5.20
2021,04,19,04,11,5.20
2021,04,19,04,12,5.20
2021,04,19,04,13,5.20
2021,04,19,04,14,5.20
2021,04,19,04,15,5.20
2021,04,19,04,16,5.20
2021,04,19,04,17,5.20
2021,04,19,04,18,5.20
2021,04,19,04,19,5.10
2021,04,19,04,20,5.10
2021,04,19,04,21,5.10
2021,04,19,04,22,5.10
2021,04,19,04,23,5.10
2021,04,19,04,24,5.10
2021,04,19,04,25,5.10
2021,04,19,04,26,5.10
2021,04,19,04,27,5.10
2021,04,19,04,28,5.10
2021,04,19,04,29,5.10
2021,04,19,04,30,5.10
2021,04,19,04,31,5.10
2021,04,19,04,32,5.10
2021,04,19,04,33,5.10
2021,04,19,04,34,5.10
2021,04,19,04,35,5.10
2021,04,19,04,36,5.10
2021,04,19,04,37,5.10
2021,04,19,04,38,5.10
2021,04,19,04,39,5.00
2021,04,19,04,40,5.00
2021,04,19,04,41,5.00
2021,04,19,04,42,5.00
2021,04,19,04,43,5.00
2021,04,19,04,44,4.90
2021,04,19,04,45,4.90
2021,04,19,04,46,4.90
2021,04,19,04,47,4.90
2021,04,19,04,48,4.90
2021,04,19,04,49,4.90
2021,04,19,04,50,4.90
2021,04,19,04,51,4.90
2021,04,19,04,52,4.90
2021,04,19,04,53,4.90
2021,04,19,04,54,4.80
2021,04,19,04,55,4.80
2021,04,19,04,56,4.80
2021,04,19,04,57,4.80
2021,04,19,04,58,4.80
2021,04,19,04,59,4.80
2021,04,19,05,00,4.80
2021,04,19,05,01,4.80
2021,04,19,05,02,4.80
2021,04,19,05,03,4.80
2021,04,19,05,04,4.80
2021,04,19,05,05,4.80
2021,04,19,05,06,4.80
2021,04,19,05,07,4.80
2021,04,19,05,08,4.70
2021,04,19,05,09,4.70
2021,04,19,05,10,4.70
2021,04,19,05,11,4.70
2021,04,19,05,12,4.70
2021,04,19,05,13,4.70
2021,04,19,05,14,4.70
2021,04,19,05,15,4.70
2021,04,19,05,16,4.70
2021,04,19,05,17,4.70
2021,04,19,05,18,4.60
2021,04,19,05,19,4.60
2021,04,19,05,20,4.60
2021,04,19,05,21,4.60
2021,04,19,05,22,4.60
2021,04,19,05,23,4.60
2021,04,19,05,24,4.60
2021,04,19,05,25,4.60
2021,04,19,05,26,4.60
2021,04,19,05,27,4.60
2021,04,19,05,28,4.60
2021,04,19,05,29,4.60
2021,04,19,05,30,4.50
2021,04,19,05,31,4.50
2021,04,19,05,32,4.50
2021,04,19,05,33,4.50
2021,04,19,05,34,4.50
2021,04,19,05,35,4.50
2021,04,19,05,36,4.40
2021,04,19,05,37,4.40
2021,04,19,05,38,4.40
2021,04,19,05,39,4.40
2021,04,19,05,40,4.40
2021,04,19,05,41,4.40
2021,04,19,05,42,4.40
2021,04,19,05,43,4.40
2021,04,19,05,44,4.40
2021,04,19,05,45,4.30
2021,04,19,05,46,4.30
2021,04,19,05,47,4.30
2021,04,19,05,48,4.30
2021,04,19,05,49,4.30
2021,04,19,05,50,4.30
2021,04,19,05,51,4.30
2021,04,19,05,52,4.30
2021,04,19,05,53,4.30
2021,04,19,05,54,4.30
2021,04,19,05,55,4.30
2021,04,19,05,56,4.30
2021,04,19,05,57,4.30
2021,04,19,05,58,4.30
2021,04,19,05,59,4.30
2021,04,19,06,00,4.30
2021,04,19,06,01,4.30
2021,04,19,06,02,4.30
2021,04,19,06,03,4.30
2021,04,19,06,04,4.30
2021,04,19,06,05,4.20
2021,04,19,06,06,4.20
2021,04,19,06,07,4.20
2021,04,19,06,08,4.20
2021,04,19,06,09,4.20
2021,04,19,06,10,4.20
2021,04,19,06,11,4.20
2021,04,19,06,12,4.20
2021,04,19,06,13,4.20
2021,04,19,06,14,4.20
2021,04,19,06,15,4.20
2021,04,19,06,16,4.20
2021,04,19,06,17,4.10
2021,04,19,06,18,4.10
2021,04,19,06,19,4.10
2021,04,19,06,20,4.10
2021,04,19,06,21,4.10
2021,04,19,06,22,4.10
2021,04,19,06,23,4.10
2021,04,19,06,24,4.10
2021,04,19,06,25,4.10
2021,04,19,06,26,4.10
2021,04,19,06,27,4.10
2021,04,19,06,28,4.10
2021,04,19,06,29,4.00
2021,04,19,06,30,4.00
2021,04,19,06,31,4.00
2021,04,19,06,32,4.00
2021,04,19,06,33,4.00
2021,04,19,06,34,4.00
2021,04,19,06,35,4.00
2021,04,19,06,36,4.00
2021,04,19,06,37,4.00
2021,04,19,06,38,4.00
2021,04,19,06,39,4.00
2021,04,19,06,40,4.00
2021,04,19,06,41,4.00
2021,04,19,06,42,4.00
2021,04,19,06,43,4.00
2021,04,19,06,44,4.00
2021,04,19,06,45,4.00
2021,04,19,06,46,4.00
2021,04,19,06,47,4.00
2021,04,19,06,48,4.00
2021,04,19,06,49,4.00
2021,04,19,06,50,3.90
2021,04,19,06,51,3.90
2021,04,19,06,52,3.90
2021,04,19,06,53,3.90
2021,04,19,06,54,4.00
2021,04,19,06,55,3.90
2021,04,19,06,56,3.90
2021,04,19,06,57,3.90
2021,04,19,06,58,3.90
2021,04,19,06,59,3.90
2021,04,19,07,00,4.00
2021,04,19,07,01,3.90
2021,04,19,07,02,3.90
2021,04,19,07,03,4.00
2021,04,19,07,04,4.00
2021,04,19,07,05,4.00
2021,04,19,07,06,4.00
2021,04,19,07,07,4.00
2021,04,19,07,08,3.90
2021,04,19,07,09,4.00
2021,04,19,07,10,4.00
2021,04,19,07,11,4.00
2021,04,19,07,12,4.00
2021,04,19,07,13,4.00
2021,04,19,07,14,4.00
2021,04,19,07,15,4.00
2021,04,19,07,16,4.00
2021,04,19,07,17,4.00
2021,04,19,07,18,4.00
2021,04,19,07,19,4.10
2021,04,19,07,20,4.10
2021,04,19,07,21,4.10
2021,04,19,07,22,4.10
2021,04,19,07,23,4.10
2021,04,19,07,24,4.10
2021,04,19,07,25,4.10
2021,04,19,07,26,4.10
2021,04,19,07,27,4.10
2021,04,19,07,28,4.20
2021,04,19,07,29,4.20
2021,04,19,07,30,4.20
2021,04,19,07,31,4.20
2021,04,19,07,32,4.20
2021,04,19,07,33,4.20
2021,04,19,07,34,4.20
2021,04,19,07,35,4.20
2021,04,19,07,36,4.20
2021,04,19,07,37,4.20
2021,04,19,07,38,4.20
2021,04,19,07,39,4.20
2021,04,19,07,40,4.20
2021,04,19,07,41,4.30
2021,04,19,07,42,4.30
2021,04,19,07,43,4.30
2021,04,19,07,44,4.30
2021,04,19,07,45,4.30
2021,04,19,07,46,4.30
2021,04,19,07,47,4.30
2021,04,19,07,48,4.30
2021,04,19,07,49,4.40
2021,04,19,07,50,4.40
2021,04,19,07,51,4.50
2021,04,19,07,52,4.50
2021,04,19,07,53,4.60
2021,04,19,07,54,4.60
2021,04,19,07,55,4.60
2021,04,19,07,56,4.60
2021,04,19,07,57,4.70
2021,04,19,07,58,4.70
2021,04,19,07,59,4.70
2021,04,19,08,00,4.80
2021,04,19,08,01,4.80
2021,04,19,08,02,4.80
2021,04,19,08,03,4.90
2021,04,19,08,04,4.90
2021,04,19,08,05,5.00
2021,04,19,08,06,5.10
2021,04,19,08,07,5.10
2021,04,19,08,08,5.10
2021,04,19,08,09,5.20
2021,04,19,08,10,5.20
2021,04,19,08,11,5.20
2021,04,19,08,12,5.20
2021,04,19,08,13,5.30
2021,04,19,08,14,5.30
2021,04,19,08,15,5.30
2021,04,19,08,16,5.40
2021,04,19,08,17,5.50
2021,04,19,08,18,5.50
2021,04,19,08,19,5.60
2021,04,19,08,20,5.60
2021,04,19,08,21,5.70
2021,04,19,08,22,5.70
2021,04,19,08,23,5.80
2021,04,19,08,24,5.80
2021,04,19,08,25,5.90
2021,04,19,08,26,5.90
2021,04,19,08,27,5.90
2021,04,19,08,28,6.00
2021,04,19,08,29,6.00
2021,04,19,08,30,6.00
2021,04,19,08,31,6.10
2021,04,19,08,32,6.10
2021,04,19,08,33,6.20
2021,04,19,08,34,6.20
2021,04,19,08,35,6.30
2021,04,19,08,36,6.30
2021,04,19,08,37,6.40
2021,04,19,08,38,6.50
2021,04,19,08,39,6.60
2021,04,19,08,40,6.70
2021,04,19,08,41,6.80
2021,04,19,08,42,6.80
2021,04,19,08,43,6.80
2021,04,19,08,44,6.90
2021,04,19,08,45,6.90
2021,04,19,08,46,7.00
2021,04,19,08,47,7.00
2021,04,19,08,48,7.10
2021,04,19,08,49,7.10
2021,04,19,08,50,7.10
2021,04,19,08,51,7.20
2021,04,19,08,52,7.30
2021,04,19,08,53,7.40
2021,04,19,08,54,7.50
2021,04,19,08,55,7.50
2021,04,19,08,56,7.60
2021,04,19,08,57,7.70
2021,04,19,08,58,7.70
2021,04,19,08,59,7.80
2021,04,19,09,00,7.90
2021,04,19,09,01,8.00
2021,04,19,09,02,8.00
2021,04,19,09,03,8.10
2021,04,19,09,04,8.20
2021,04,19,09,05,8.20
2021,04,19,09,06,8.30
2021,04,19,09,07,8.40
2021,04,19,09,08,8.50
2021,04,19,09,09,8.50
2021,04,19,09,10,8.60
2021,04,19,09,11,8.70
2021,04,19,09,12,8.80
2021,04,19,09,13,8.80
2021,04,19,09,14,8.90
2021,04,19,09,15,9.00
2021,04,19,09,16,9.10
2021,04,19,09,17,9.20
2021,04,19,09,18,9.30
2021,04,19,09,19,9.50
2021,04,19,09,20,9.60
2021,04,19,09,21,9.70
2021,04,19,09,22,9.80
2021,04,19,09,23,9.90
2021,04,19,09,24,9.90
2021,04,19,09,25,9.90
2021,04,19,09,26,10.00
2021,04,19,09,27,10.10
2021,04,19,09,28,10.20
2021,04,19,09,29,10.30
2021,04,19,09,30,10.40
2021,04,19,09,31,10.50
2021,04,19,09,32,10.60
2021,04,19,09,33,10.60
2021,04,19,09,34,10.70
2021,04,19,09,35,10.80
2021,04,19,09,36,10.90
2021,04,19,09,37,10.90
2021,04,19,09,38,11.00
2021,04,19,09,39,11.00
2021,04,19,09,40,11.10
2021,04,19,09,41,11.20
2021,04,19,09,42,11.20
2021,04,19,09,43,11.30
2021,04,19,09,44,11.40
2021,04,19,09,45,11.40
2021,04,19,09,46,11.40
2021,04,19,09,47,11.40
2021,04,19,09,48,11.40
2021,04,19,09,49,11.50
2021,04,19,09,50,11.50
2021,04,19,09,51,11.60
2021,04,19,09,52,11.70
2021,04,19,09,53,11.80
2021,04,19,09,54,11.90
2021,04,19,09,55,12.00
2021,04,19,09,56,12.10
2021,04,19,09,57,12.20
2021,04,19,09,58,12.30
2021,04,19,09,59,12.40
2021,04,19,10,00,12.50
2021,04,19,10,01,12.60
2021,04,19,10,02,12.60
2021,04,19,10,03,12.60
2021,04,19,10,04,12.70
2021,04,19,10,05,12.70
2021,04,19,10,06,12.80
2021,04,19,10,07,12.90
2021,04,19,10,08,13.00
2021,04,19,10,09,13.10
2021,04,19,10,10,13.00
2021,04,19,10,11,13.00
2021,04,19,10,12,12.90
2021,04,19,10,13,12.80
2021,04,19,10,14,12.80
2021,04,19,10,15,12.80
2021,04,19,10,16,12.70
2021,04,19,10,17,12.70
2021,04,19,10,18,12.60
2021,04,19,10,19,12.60
2021,04,19,10,20,12.60
2021,04,19,10,21,12.60
2021,04,19,10,22,12.60
2021,04,19,10,23,12.70
2021,04,19,10,24,12.80
2021,04,19,10,25,12.90
2021,04,19,10,26,13.00
2021,04,19,10,27,13.00
2021,04,19,10,28,13.10
2021,04,19,10,29,13.20
2021,04,19,10,30,13.30
2021,04,19,10,31,13.40
2021,04,19,10,32,13.50
2021,04,19,10,33,13.70
2021,04,19,10,34,13.90
2021,04,19,10,35,14.10
2021,04,19,10,36,14.20
2021,04,19,10,37,14.30
2021,04,19,10,38,14.40
2021,04,19,10,39,14.50
2021,04,19,10,40,14.60
2021,04,19,10,41,14.60
2021,04,19,10,42,14.60
2021,04,19,10,43,14.60
2021,04,19,10,44,14.50
2021,04,19,10,45,14.50
2021,04,19,10,46,14.40
2021,04,19,10,47,14.40
2021,04,19,10,48,14.40
2021,04,19,10,49,14.30
2021,04,19,10,50,14.30
2021,04,19,10,51,14.40
2021,04,19,10,52,14.40
2021,04,19,10,53,14.40
2021,04,19,10,54,14.50
2021,04,19,10,55,14.50
2021,04,19,10,56,14.60
2021,04,19,10,57,14.70
2021,04,19,10,58,14.70
2021,04,19,10,59,14.80
2021,04,19,11,00,14.90
2021,04,19,11,01,15.10
2021,04,19,11,02,15.20
2021,04,19,11,03,15.30
2021,04,19,11,04,15.40
2021,04,19,11,05,15.50
2021,04,19,11,06,15.50
2021,04,19,11,07,15.50
2021,04,19,11,08,15.60
2021,04,19,11,09,15.60
2021,04,19,11,10,15.70
2021,04,19,11,11,15.70
2021,04,19,11,12,15.70
2021,04,19,11,13,15.80
2021,04,19,11,14,15.80
2021,04,19,11,15,15.80
2021,04,19,11,16,15.80
2021,04,19,11,17,15.90
2021,04,19,11,18,15.90
2021,04,19,11,19,16.00
2021,04,19,11,20,16.00
2021,04,19,11,21,16.10
2021,04,19,11,22,16.10
2021,04,19,11,23,16.20
2021,04,19,11,24,16.30
2021,04,19,11,25,16.30
2021,04,19,11,26,16.40
2021,04,19,11,27,16.40
2021,04,19,11,28,16.50
2021,04,19,11,29,16.60
2021,04,19,11,30,16.60
2021,04,19,11,31,16.70
2021,04,19,11,32,16.70
2021,04,19,11,33,16.80
2021,04,19,11,34,16.80
2021,04,19,11,35,16.90
2021,04,19,11,36,16.90
2021,04,19,11,37,17.00
2021,04,19,11,38,17.10
2021,04,19,11,39,17.20
2021,04,19,11,40,17.20
2021,04,19,11,41,17.30
2021,04,19,11,42,17.30
2021,04,19,11,43,17.40
2021,04,19,11,44,17.40
2021,04,19,11,45,17.50
2021,04,19,11,46,17.50
2021,04,19,11,47,17.60
2021,04,19,11,48,17.70
2021,04,19,11,49,17.80
2021,04,19,11,50,17.80
2021,04,19,11,51,17.90
2021,04,19,11,52,17.90
2021,04,19,11,53,18.00
2021,04,19,11,54,18.10
2021,04,19,11,55,18.20
2021,04,19,11,56,18.20
2021,04,19,11,57,18.30
2021,04,19,11,58,18.30
2021,04,19,11,59,18.40
2021,04,19,12,00,18.50
2021,04,19,12,01,18.60
2021,04,19,12,02,18.70
2021,04,19,12,03,18.90
2021,04,19,12,04,19.00
2021,04,19,12,05,19.20
2021,04,19,12,06,19.40
2021,04,19,12,07,19.60
2021,04,19,12,08,19.70
2021,04,19,12,09,19.80
2021,04,19,12,10,19.80
2021,04,19,12,11,19.80
2021,04,19,12,12,19.90
2021,04,19,12,13,19.90
2021,04,19,12,14,19.90
2021,04,19,12,15,19.90
2021,04,19,12,16,19.90
2021,04,19,12,17,19.90
2021,04,19,12,18,19.90
2021,04,19,12,19,20.00
2021,04,19,12,20,20.20
2021,04,19,12,21,20.30
2021,04,19,12,22,20.40
2021,04,19,12,23,20.40
2021,04,19,12,24,20.40
2021,04,19,12,25,20.50
2021,04,19,12,26,20.60
2021,04,19,12,27,20.70
2021,04,19,12,28,20.80
2021,04,19,12,29,20.90
2021,04,19,12,30,20.90
2021,04,19,12,31,20.90
2021,04,19,12,32,20.80
2021,04,19,12,33,20.80
2021,04,19,12,34,20.70
2021,04,19,12,35,20.70
2021,04,19,12,36,20.70
2021,04,19,12,37,20.60
2021,04,19,12,38,20.60
2021,04,19,12,39,20.60
2021,04,19,12,40,20.70
2021,04,19,12,41,20.80
2021,04,19,12,42,20.80
2021,04,19,12,43,20.80
2021,04,19,12,44,20.90
2021,04,19,12,45,20.90
2021,04,19,12,46,21.00
2021,04,19,12,47,21.10
2021,04,19,12,48,21.20
2021,04,19,12,49,21.30
2021,04,19,12,50,21.30
2021,04,19,12,51,21.30
2021,04,19,12,52,21.30
2021,04,19,12,53,21.30
2021,04,19,12,54,21.20
2021,04,19,12,55,21.20
2021,04,19,12,56,21.10
2021,04,19,12,57,21.10
2021,04,19,12,58,21.10
2021,04,19,12,59,21.10
2021,04,19,13,00,21.10
2021,04,19,13,01,21.20
2021,04,19,13,02,21.30
2021,04,19,13,03,21.40
2021,04,19,13,04,21.60
2021,04,19,13,05,21.70
2021,04,19,13,06,21.80
2021,04,19,13,07,22.10
2021,04,19,13,08,22.30
2021,04,19,13,09,22.30
2021,04,19,13,10,22.40
2021,04,19,13,11,22.30
2021,04,19,13,12,22.20
2021,04,19,13,13,22.10
2021,04,19,13,14,22.00
2021,04,19,13,15,21.90
2021,04,19,13,16,21.80
2021,04,19,13,17,21.80
2021,04,19,13,18,21.80
2021,04,19,13,19,21.90
2021,04,19,13,20,22.00
2021,04,19,13,21,22.20
2021,04,19,13,22,22.20
2021,04,19,13,23,22.30
2021,04,19,13,24,22.30
2021,04,19,13,25,22.40
2021,04,19,13,26,22.50
2021,04,19,13,27,22.50
2021,04,19,13,28,22.60
2021,04,19,13,29,22.60
2021,04,19,13,30,22.70
2021,04,19,13,31,22.70
2021,04,19,13,32,22.70
2021,04,19,13,33,22.60
2021,04,19,13,34,22.60
2021,04,19,13,35,22.50
2021,04,19,13,36,22.40
2021,04,19,13,37,22.40
2021,04,19,13,38,22.40
2021,04,19,13,39,22.40
2021,04,19,13,40,22.50
2021,04,19,13,41,22.50
2021,04,19,13,42,22.50
2021,04,19,13,43,22.60
2021,04,19,13,44,22.60
2021,04,19,13,45,22.60
2021,04,19,13,46,22.60
2021,04,19,13,47,22.50
2021,04,19,13,48,22.50
2021,04,19,13,49,22.40
2021,04,19,13,50,22.30
2021,04,19,13,51,22.20
2021,04,19,13,52,22.20
2021,04,19,13,53,22.10
2021,04,19,13,54,22.10
2021,04,19,13,55,22.20
2021,04,19,13,56,22.20
2021,04,19,13,57,22.30
2021,04,19,13,58,22.30
2021,04,19,13,59,22.40
2021,04,19,14,00,22.50
2021,04,19,14,01,22.60
2021,04,19,14,02,22.70
2021,04,19,14,03,22.80
2021,04,19,14,04,22.90
2021,04,19,14,05,22.90
2021,04,19,14,06,23.00
2021,04,19,14,07,23.00
2021,04,19,14,08,23.10
2021,04,19,14,09,23.20
2021,04,19,14,10,23.20
2021,04,19,14,11,23.20
2021,04,19,14,12,23.20
2021,04,19,14,13,23.10
2021,04,19,14,14,23.00
2021,04,19,14,15,22.90
2021,04,19,14,16,22.80
2021,04,19,14,17,22.70
2021,04,19,14,18,22.70
2021,04,19,14,19,22.70
2021,04,19,14,20,22.80
2021,04,19,14,21,22.90
2021,04,19,14,22,23.00
2021,04,19,14,23,23.10
2021,04,19,14,24,23.00
2021,04,19,14,25,23.00
2021,04,19,14,26,22.80
2021,04,19,14,27,22.80
2021,04,19,14,28,22.70
2021,04,19,14,29,22.60
2021,04,19,14,30,22.60
2021,04,19,14,31,22.60
2021,04,19,14,32,22.70
2021,04,19,14,33,22.80
2021,04,19,14,34,22.80
2021,04,19,14,35,22.80
2021,04,19,14,36,22.80
2021,04,19,14,37,22.80
2021,04,19,14,38,22.90
2021,04,19,14,39,23.00
2021,04,19,14,40,23.10
2021,04,19,14,41,23.20
2021,04,19,14,42,23.20
2021,04,19,14,43,23.20
2021,04,19,14,44,23.20
2021,04,19,14,45,23.10
2021,04,19,14,46,23.10
2021,04,19,14,47,23.10
2021,04,19,14,48,23.10
2021,04,19,14,49,23.20
2021,04,19,14,50,23.20
2021,04,19,14,51,23.30
2021,04,19,14,52,23.30
2021,04,19,14,53,23.20
2021,04,19,14,54,23.10
2021,04,19,14,55,23.10
2021,04,19,14,56,23.10
2021,04,19,14,57,23.10
2021,04,19,14,58,23.00
2021,04,19,14,59,22.90
2021,04,19,15,00,22.90
2021,04,19,15,01,22.90
2021,04,19,15,02,22.90
2021,04,19,15,03,22.90
2021,04,19,15,04,22.90
2021,04,19,15,05,22.80
2021,04,19,15,06,22.80
2021,04,19,15,07,22.70
2021,04,19,15,08,22.70
2021,04,19,15,09,22.60
2021,04,19,15,10,22.70
2021,04,19,15,11,22.70
2021,04,19,15,12,22.80
2021,04,19,15,13,22.80
2021,04,19,15,14,22.80
2021,04,19,15,15,22.80
2021,04,19,15,16,22.80
2021,04,19,15,17,22.80
2021,04,19,15,18,22.80
2021,04,19,15,19,22.80
2021,04,19,15,20,22.80
2021,04,19,15,21,22.80
2021,04,19,15,22,22.70
2021,04,19,15,23,22.70
2021,04,19,15,24,22.70
2021,04,19,15,25,22.60
2021,04,19,15,26,22.50
2021,04,19,15,27,22.50
2021,04,19,15,28,22.40
2021,04,19,15,29,22.40
2021,04,19,15,30,22.40
2021,04,19,15,31,22.50
2021,04,19,15,32,22.50
2021,04,19,15,33,22.60
2021,04,19,15,34,22.60
2021,04,19,15,35,22.70
2021,04,19,15,36,22.70
2021,04,19,15,37,22.70
2021,04,19,15,38,22.60
2021,04,19,15,39,22.60
2021,04,19,15,40,22.60
2021,04,19,15,41,22.60
2021,04,19,15,42,22.60
2021,04,19,15,43,22.50
2021,04,19,15,44,22.50
2021,04,19,15,45,22.40
2021,04,19,15,46,22.40
2021,04,19,15,47,22.40
2021,04,19,15,48,22.40
2021,04,19,15,49,22.40
2021,04,19,15,50,22.50
2021,04,19,15,51,22.50
2021,04,19,15,52,22.50
2021,04,19,15,53,22.50
2021,04,19,15,54,22.50
2021,04,19,15,55,22.50
2021,04,19,15,56,22.50
2021,04,19,15,57,22.50
2021,04,19,15,58,22.50
2021,04,19,15,59,22.50
2021,04,19,16,00,22.50
2021,04,19,16,01,22.40
2021,04,19,16,02,22.40
2021,04,19,16,03,22.40
2021,04,19,16,04,22.40
2021,04,19,16,05,22.50
2021,04,19,16,06,22.50
2021,04,19,16,07,22.40
2021,04,19,16,08,22.40
2021,04,19,16,09,22.50
2021,04,19,16,10,22.50
2021,04,19,16,11,22.60
2021,04,19,16,12,22.60
2021,04,19,16,13,22.70
2021,04,19,16,14,22.70
2021,04,19,16,15,22.80
2021,04,19,16,16,22.90
2021,04,19,16,17,22.90
2021,04,19,16,18,22.90
2021,04,19,16,19,22.90
2021,04,19,16,20,22.90
2021,04,19,16,21,22.90
2021,04,19,16,22,23.00
2021,04,19,16,23,23.00
2021,04,19,16,24,22.90
2021,04,19,16,25,22.80
2021,04,19,16,26,22.80
2021,04,19,16,27,22.80
2021,04,19,16,28,22.80
2021,04,19,16,29,22.80
2021,04,19,16,30,22.80
2021,04,19,16,31,22.70
2021,04,19,16,32,22.70
2021,04,19,16,33,22.80
2021,04,19,16,34,22.80
2021,04,19,16,35,22.80
2021,04,19,16,36,22.70
2021,04,19,16,37,22.70
2021,04,19,16,38,22.70
2021,04,19,16,39,22.80
2021,04,19,16,40,22.80
2021,04,19,16,41,22.80
2021,04,19,16,42,22.90
2021,04,19,16,43,23.00
2021,04,19,16,44,23.00
2021,04,19,16,45,23.00
2021,04,19,16,46,23.00
2021,04,19,16,47,22.90
2021,04,19,16,48,22.90
2021,04,19,16,49,23.00
2021,04,19,16,50,23.00
2021,04,19,16,51,23.00
2021,04,19,16,52,23.00
2021,04,19,16,53,23.00
2021,04,19,16,54,22.90
2021,04,19,16,55,22.90
2021,04,19,16,56,22.80
2021,04,19,16,57,22.80
2021,04,19,16,58,22.80
2021,04,19,16,59,22.80
2021,04,19,17,00,22.70
2021,04,19,17,01,22.70
2021,04,19,17,02,22.70
2021,04,19,17,03,22.70
2021,04,19,17,04,22.70
2021,04,19,17,05,22.60
2021,04,19,17,06,22.60
2021,04,19,17,07,22.50
2021,04,19,17,08,22.50
2021,04,19,17,09,22.40
2021,04,19,17,10,22.40
2021,04,19,17,11,22.40
2021,04,19,17,12,22.40
2021,04,19,17,13,22.50
2021,04,19,17,14,22.50
2021,04,19,17,15,22.50
2021,04,19,17,16,22.40
2021,04,19,17,17,22.40
2021,04,19,17,18,22.30
2021,04,19,17,19,22.30
2021,04,19,17,20,22.20
2021,04,19,17,21,22.20
2021,04,19,17,22,22.10
2021,04,19,17,23,22.10
2021,04,19,17,24,22.10
2021,04,19,17,25,22.10
2021,04,19,17,26,22.10
2021,04,19,17,27,22.10
2021,04,19,17,28,22.00
2021,04,19,17,29,22.00
2021,04,19,17,30,21.90
2021,04,19,17,31,21.80
2021,04,19,17,32,21.70
2021,04,19,17,33,21.70
2021,04,19,17,34,21.60
2021,04,19,17,35,21.60
2021,04,19,17,36,21.60
2021,04,19,17,37,21.60
2021,04,19,17,38,21.60
2021,04,19,17,39,21.70
2021,04,19,17,40,21.70
2021,04,19,17,41,21.60
2021,04,19,17,42,21.50
2021,04,19,17,43,21.40
2021,04,19,17,44,21.30